Time,TemperatureF,DewpointF,PressureIn,WindDirection,WindDirectionDegrees,WindSpeedMPH,WindSpeedGustMPH,Humidity,HourlyPrecipIn,Conditions,Clouds,dailyrainin,SoftwareType,DateUTC
2013-09-14 00:04:00,55.8,48.0,29.95,SW,231,0.0,3.0,74,0.00,,,0.00,weatherlink.com 1.10,2013-09-14 04:04:00,
2013-09-14 00:19:00,55.3,47.0,29.96,South,174,0.0,2.0,74,0.00,,,0.00,weatherlink.com 1.10,2013-09-14 04:19:00,
2013-09-14 00:34:00,54.9,47.0,29.97,South,171,0.0,2.0,75,0.00,,,0.00,weatherlink.com 1.10,2013-09-14 04:34:00,
2013-09-14 00:49:00,54.2,47.0,29.97,ENE,67,0.0,2.0,78,0.00,,,0.00,weatherlink.com 1.10,2013-09-14 04:49:00,
2013-09-14 01:04:00,53.9,47.0,29.97,ENE,57,3.0,3.0,78,0.00,,,0.00,weatherlink.com 1.10,2013-09-14 05:04:00,
2013-09-14 01:19:00,53.8,47.0,29.97,NE,38,0.0,4.0,78,0.00,,,0.00,weatherlink.com 1.10,2013-09-14 05:19:00,
2013-09-14 01:34:00,53.3,47.0,29.97,NNE,30,0.0,3.0,78,0.00,,,0.00,weatherlink.com 1.10,2013-09-14 05:34:00,
2013-09-14 01:49:00,53.0,46.0,29.97,WNW,303,1.0,2.0,77,0.00,,,0.00,weatherlink.com 1.10,2013-09-14 05:49:00,
2013-09-14 02:04:00,52.9,46.0,29.97,NNE,19,1.0,3.0,77,0.00,,,0.00,weatherlink.com 1.10,2013-09-14 06:04:00,
2013-09-14 02:19:00,53.0,46.0,29.97,NE,43,0.0,4.0,77,0.00,,,0.00,weatherlink.com 1.10,2013-09-14 06:19:00,
2013-09-14 02:34:00,52.6,46.0,29.97,NNE,33,2.0,3.0,78,0.00,,,0.00,weatherlink.com 1.10,2013-09-14 06:34:00,
2013-09-14 02:49:00,52.3,46.0,29.97,NNW,338,0.0,4.0,79,0.00,,,0.00,weatherlink.com 1.10,2013-09-14 06:49:00,
2013-09-14 03:04:00,52.3,46.0,29.98,North,5,1.0,3.0,78,0.00,,,0.00,weatherlink.com 1.10,2013-09-14 07:04:00,
2013-09-14 03:19:00,52.1,45.0,29.98,NNW,342,1.0,5.0,78,0.00,,,0.00,weatherlink.com 1.10,2013-09-14 07:19:00,
2013-09-14 03:34:00,51.5,45.0,29.97,NNW,342,0.0,0.0,79,0.00,,,0.00,weatherlink.com 1.10,2013-09-14 07:34:00,
2013-09-14 03:49:00,50.8,45.0,29.98,NE,46,0.0,1.0,81,0.00,,,0.00,weatherlink.com 1.10,2013-09-14 07:49:00,
2013-09-14 04:04:00,50.6,45.0,29.97,SSW,196,0.0,3.0,81,0.00,,,0.00,weatherlink.com 1.10,2013-09-14 08:04:00,
2013-09-14 04:19:00,50.6,45.0,29.98,East,87,0.0,3.0,82,0.00,,,0.00,weatherlink.com 1.10,2013-09-14 08:19:00,
2013-09-14 04:34:00,50.4,45.0,29.98,WSW,258,0.0,1.0,82,0.00,,,0.00,weatherlink.com 1.10,2013-09-14 08:34:00,
2013-09-14 04:49:00,50.1,45.0,29.98,WSW,258,0.0,1.0,82,0.00,,,0.00,weatherlink.com 1.10,2013-09-14 08:49:00,
2013-09-14 05:04:00,49.5,45.0,29.99,WSW,258,0.0,2.0,83,0.00,,,0.00,weatherlink.com 1.10,2013-09-14 09:04:00,
2013-09-14 05:19:00,49.1,45.0,29.99,SW,215,0.0,3.0,84,0.00,,,0.00,weatherlink.com 1.10,2013-09-14 09:19:00,
2013-09-14 05:34:00,49.0,44.0,30.00,West,269,1.0,2.0,84,0.00,,,0.00,weatherlink.com 1.10,2013-09-14 09:34:00,
2013-09-14 05:49:00,49.0,44.0,30.00,NNW,332,0.0,3.0,82,0.00,,,0.00,weatherlink.com 1.10,2013-09-14 09:49:00,
2013-09-14 06:04:00,49.0,44.0,30.00,NNW,346,0.0,2.0,82,0.00,,,0.00,weatherlink.com 1.10,2013-09-14 10:04:00,
2013-09-14 06:19:00,49.2,44.0,30.01,West,266,1.0,2.0,81,0.00,,,0.00,weatherlink.com 1.10,2013-09-14 10:19:00,
2013-09-14 06:34:00,48.7,43.0,30.02,West,266,0.0,2.0,82,0.00,,,0.00,weatherlink.com 1.10,2013-09-14 10:34:00,
2013-09-14 06:49:00,48.2,43.0,30.02,NW,324,0.0,2.0,83,0.00,,,0.00,weatherlink.com 1.10,2013-09-14 10:49:00,
2013-09-14 07:04:00,48.1,44.0,30.03,WSW,241,0.0,1.0,84,0.00,,,0.00,weatherlink.com 1.10,2013-09-14 11:04:00,
2013-09-14 07:20:00,48.2,43.0,30.04,WSW,240,0.0,1.0,83,0.00,,,0.00,weatherlink.com 1.10,2013-09-14 11:20:00,
2013-09-14 07:35:00,48.8,43.0,30.05,SE,127,0.0,2.0,81,0.00,,,0.00,weatherlink.com 1.10,2013-09-14 11:35:00,
2013-09-14 07:50:00,49.7,43.0,30.05,North,5,0.0,3.0,79,0.00,,,0.00,weatherlink.com 1.10,2013-09-14 11:50:00,
2013-09-14 08:05:00,50.4,43.0,30.06,NW,325,0.0,3.0,77,0.00,,,0.00,weatherlink.com 1.10,2013-09-14 12:05:00,
2013-09-14 08:20:00,51.2,44.0,30.06,ENE,69,0.0,3.0,76,0.00,,,0.00,weatherlink.com 1.10,2013-09-14 12:20:00,
2013-09-14 08:35:00,52.4,44.0,30.07,NE,55,0.0,7.0,73,0.00,,,0.00,weatherlink.com 1.10,2013-09-14 12:35:00,
2013-09-14 08:50:00,53.3,44.0,30.07,SSE,158,1.0,6.0,72,0.00,,,0.00,weatherlink.com 1.10,2013-09-14 12:50:00,
2013-09-14 09:05:00,54.0,44.0,30.08,NNE,31,2.0,6.0,70,0.00,,,0.00,weatherlink.com 1.10,2013-09-14 13:05:00,
2013-09-14 09:20:00,54.6,45.0,30.08,NE,55,0.0,4.0,70,0.00,,,0.00,weatherlink.com 1.10,2013-09-14 13:20:00,
2013-09-14 09:35:00,55.5,45.0,30.09,North,5,0.0,3.0,68,0.00,,,0.00,weatherlink.com 1.10,2013-09-14 13:35:00,
2013-09-14 09:50:00,55.0,43.0,30.09,SSW,197,3.0,8.0,65,0.00,,,0.00,weatherlink.com 1.10,2013-09-14 13:50:00,
2013-09-14 10:05:00,55.0,43.0,30.09,North,355,1.0,6.0,65,0.00,,,0.00,weatherlink.com 1.10,2013-09-14 14:05:00,
2013-09-14 10:20:00,56.9,44.0,30.09,ENE,59,2.0,7.0,63,0.00,,,0.00,weatherlink.com 1.10,2013-09-14 14:20:00,
2013-09-14 10:35:00,57.6,43.0,30.10,NE,43,2.0,7.0,59,0.00,,,0.00,weatherlink.com 1.10,2013-09-14 14:35:00,
2013-09-14 10:50:00,59.0,44.0,30.10,ENE,69,2.0,10.0,59,0.00,,,0.00,weatherlink.com 1.10,2013-09-14 14:50:00,
2013-09-14 11:05:00,57.8,46.0,30.10,North,360,0.0,6.0,64,0.00,,,0.00,weatherlink.com 1.10,2013-09-14 15:05:00,
2013-09-14 11:20:00,58.4,46.0,30.10,NNW,348,3.0,6.0,64,0.00,,,0.00,weatherlink.com 1.10,2013-09-14 15:20:00,
2013-09-14 11:35:00,59.5,47.0,30.10,East,89,1.0,6.0,64,0.00,,,0.00,weatherlink.com 1.10,2013-09-14 15:35:00,
2013-09-14 11:50:00,59.9,45.0,30.10,NNE,26,1.0,4.0,59,0.00,,,0.00,weatherlink.com 1.10,2013-09-14 15:50:00,
2013-09-14 12:05:00,59.5,45.0,30.10,NNE,30,2.0,6.0,60,0.00,,,0.00,weatherlink.com 1.10,2013-09-14 16:05:00,
2013-09-14 12:20:00,60.0,45.0,30.10,SW,215,3.0,11.0,59,0.00,,,0.00,weatherlink.com 1.10,2013-09-14 16:20:00,
2013-09-14 12:35:00,59.8,45.0,30.10,NNE,22,0.0,8.0,59,0.00,,,0.00,weatherlink.com 1.10,2013-09-14 16:35:00,
2013-09-14 12:50:00,60.1,46.0,30.10,North,360,5.0,7.0,59,0.00,,,0.00,weatherlink.com 1.10,2013-09-14 16:50:00,
2013-09-14 13:05:00,60.8,45.0,30.10,NNE,21,2.0,5.0,57,0.00,,,0.00,weatherlink.com 1.10,2013-09-14 17:05:00,
2013-09-14 13:20:00,61.4,46.0,30.10,SSW,195,2.0,5.0,58,0.00,,,0.00,weatherlink.com 1.10,2013-09-14 17:20:00,
2013-09-14 13:35:00,61.8,48.0,30.10,ESE,107,1.0,4.0,60,0.00,,,0.00,weatherlink.com 1.10,2013-09-14 17:35:00,
2013-09-14 13:50:00,62.1,46.0,30.10,North,360,1.0,5.0,55,0.00,,,0.00,weatherlink.com 1.10,2013-09-14 17:50:00,
2013-09-14 14:05:00,62.6,46.0,30.09,NNW,335,1.0,4.0,56,0.00,,,0.00,weatherlink.com 1.10,2013-09-14 18:05:00,
2013-09-14 14:20:00,63.6,46.0,30.08,East,84,2.0,6.0,54,0.00,,,0.00,weatherlink.com 1.10,2013-09-14 18:20:00,
2013-09-14 14:35:00,63.1,47.0,30.08,NE,48,3.0,5.0,56,0.00,,,0.00,weatherlink.com 1.10,2013-09-14 18:35:00,
2013-09-14 14:50:00,63.4,47.0,30.07,East,96,0.0,3.0,55,0.00,,,0.00,weatherlink.com 1.10,2013-09-14 18:50:00,
2013-09-14 15:05:00,64.1,48.0,30.07,East,93,3.0,6.0,57,0.00,,,0.00,weatherlink.com 1.10,2013-09-14 19:05:00,
2013-09-14 15:20:00,64.7,46.0,30.07,NE,56,1.0,6.0,52,0.00,,,0.00,weatherlink.com 1.10,2013-09-14 19:20:00,
2013-09-14 15:35:00,65.2,48.0,30.07,ESE,121,2.0,3.0,54,0.00,,,0.00,weatherlink.com 1.10,2013-09-14 19:35:00,
2013-09-14 15:50:00,65.5,48.0,30.07,South,190,1.0,5.0,53,0.00,,,0.00,weatherlink.com 1.10,2013-09-14 19:50:00,
2013-09-14 16:05:00,65.5,47.0,30.06,NNE,28,1.0,3.0,52,0.00,,,0.00,weatherlink.com 1.10,2013-09-14 20:05:00,
2013-09-14 16:20:00,65.2,46.0,30.06,SW,224,1.0,5.0,51,0.00,,,0.00,weatherlink.com 1.10,2013-09-14 20:20:00,
2013-09-14 16:35:00,65.8,48.0,30.07,NW,323,0.0,3.0,53,0.00,,,0.00,weatherlink.com 1.10,2013-09-14 20:35:00,
2013-09-14 16:50:00,66.0,47.0,30.07,NNE,20,1.0,4.0,51,0.00,,,0.00,weatherlink.com 1.10,2013-09-14 20:50:00,
2013-09-14 17:05:00,65.8,48.0,30.07,South,178,2.0,3.0,52,0.00,,,0.00,weatherlink.com 1.10,2013-09-14 21:05:00,
2013-09-14 17:20:00,64.9,46.0,30.07,ESE,113,1.0,3.0,51,0.00,,,0.00,weatherlink.com 1.10,2013-09-14 21:20:00,
2013-09-14 17:35:00,64.0,47.0,30.07,ESE,117,1.0,2.0,54,0.00,,,0.00,weatherlink.com 1.10,2013-09-14 21:35:00,
2013-09-14 17:50:00,63.3,46.0,30.08,ESE,113,1.0,2.0,54,0.00,,,0.00,weatherlink.com 1.10,2013-09-14 21:50:00,
2013-09-14 18:05:00,62.6,47.0,30.08,South,176,0.0,2.0,58,0.00,,,0.00,weatherlink.com 1.10,2013-09-14 22:05:00,
2013-09-14 18:20:00,62.2,48.0,30.08,South,172,0.0,1.0,60,0.00,,,0.00,weatherlink.com 1.10,2013-09-14 22:20:00,
2013-09-14 18:35:00,61.5,48.0,30.09,South,172,0.0,0.0,61,0.00,,,0.00,weatherlink.com 1.10,2013-09-14 22:35:00,
2013-09-14 18:50:00,60.7,47.0,30.09,South,172,0.0,0.0,62,0.00,,,0.00,weatherlink.com 1.10,2013-09-14 22:50:00,
2013-09-14 19:06:00,60.0,48.0,30.09,South,172,0.0,1.0,64,0.00,,,0.00,weatherlink.com 1.10,2013-09-14 23:06:00,
2013-09-14 19:21:00,59.1,48.0,30.09,South,172,0.0,0.0,68,0.00,,,0.00,weatherlink.com 1.10,2013-09-14 23:21:00,
2013-09-14 19:36:00,58.3,48.0,30.10,South,172,0.0,1.0,69,0.00,,,0.00,weatherlink.com 1.10,2013-09-14 23:36:00,
2013-09-14 19:51:00,57.4,48.0,30.11,South,172,0.0,0.0,70,0.00,,,0.00,weatherlink.com 1.10,2013-09-14 23:51:00,
2013-09-14 20:06:00,56.6,47.0,30.11,South,172,0.0,0.0,71,0.00,,,0.00,weatherlink.com 1.10,2013-09-15 00:06:00,
2013-09-14 20:21:00,56.4,47.0,30.11,South,172,0.0,1.0,72,0.00,,,0.00,weatherlink.com 1.10,2013-09-15 00:21:00,
2013-09-14 20:36:00,56.2,48.0,30.12,South,172,0.0,1.0,74,0.00,,,0.00,weatherlink.com 1.10,2013-09-15 00:36:00,
2013-09-14 20:51:00,55.8,48.0,30.12,South,172,0.0,0.0,74,0.00,,,0.00,weatherlink.com 1.10,2013-09-15 00:51:00,
2013-09-14 21:06:00,55.3,49.0,30.13,South,172,0.0,0.0,78,0.00,,,0.00,weatherlink.com 1.10,2013-09-15 01:06:00,
2013-09-14 21:21:00,54.8,48.0,30.13,South,172,0.0,0.0,77,0.00,,,0.00,weatherlink.com 1.10,2013-09-15 01:21:00,
2013-09-14 21:36:00,54.4,48.0,30.14,South,172,0.0,0.0,80,0.00,,,0.00,weatherlink.com 1.10,2013-09-15 01:36:00,
2013-09-14 21:51:00,54.2,47.0,30.14,South,172,0.0,0.0,76,0.00,,,0.00,weatherlink.com 1.10,2013-09-15 01:51:00,
2013-09-14 22:06:00,54.2,47.0,30.14,South,172,0.0,0.0,77,0.00,,,0.00,weatherlink.com 1.10,2013-09-15 02:06:00,
2013-09-14 22:21:00,54.3,47.0,30.14,South,172,0.0,1.0,77,0.00,,,0.00,weatherlink.com 1.10,2013-09-15 02:21:00,
2013-09-14 22:36:00,54.3,48.0,30.14,South,172,0.0,1.0,80,0.00,,,0.00,weatherlink.com 1.10,2013-09-15 02:36:00,
2013-09-14 22:51:00,53.2,48.0,30.14,South,172,0.0,1.0,81,0.00,,,0.00,weatherlink.com 1.10,2013-09-15 02:51:00,
2013-09-14 23:06:00,51.7,47.0,30.15,South,172,0.0,1.0,83,0.00,,,0.00,weatherlink.com 1.10,2013-09-15 03:06:00,
2013-09-14 23:21:00,52.1,47.0,30.15,South,172,0.0,2.0,83,0.00,,,0.00,weatherlink.com 1.10,2013-09-15 03:21:00,
2013-09-14 23:36:00,52.2,47.0,30.16,South,172,0.0,1.0,82,0.00,,,0.00,weatherlink.com 1.10,2013-09-15 03:36:00,
2013-09-14 23:51:00,51.1,47.0,30.16,South,172,0.0,0.0,85,0.00,,,0.00,weatherlink.com 1.10,2013-09-15 03:51:00,